Regional Weather Roundup
Issued by NWS

Home | Current Version | Previous Version | Graphics & Text | Print | Product List | Glossary On
Versions: 1 2 3 4 5 6 7 8 9 10 11 12 13 14 15 16 17 18 19 20 21 22 23 24 25 26 27 28 29 30 31 32 33 34 35 36 37 38 39 40 41 42 43 44 45 46 47 48 49 50
000
ASUS43 KFSD 051710
RWRSD

WEATHER ROUNDUP FOR SOUTH DAKOTA
NATIONAL WEATHER SERVICE SIOUX FALLS SD
1100 AM CST FRI FEB 05 2016

NOTE: "FAIR" INDICATES FEW OR NO CLOUDS BELOW 12,000 FEET WITH NO
SIGNIFICANT WEATHER AND/OR OBSTRUCTIONS TO VISIBILITY.


SDZ001>005-009-010-012>017-051800-
NORTHWEST AND NORTH CENTRAL SOUTH DAKOTA

CITY           SKY/WX    TMP DP  RH WIND       PRES   REMARKS
BUFFALO          N/A     32  24  72 W18       30.13F WCI  20
FAITH            N/A     31  23  72 NW17      30.20R WCI  19
MOBRIDGE       PTSUNNY   34  28  79 NW12      30.15S WCI  25
$$

SDZ012>016-024>037-041>051-057-063-072>074-051800-
SOUTHWEST AND SOUTH CENTRAL SOUTH DAKOTA

CITY           SKY/WX    TMP DP  RH WIND       PRES   REMARKS
RAPID CTY ARPT SUNNY     32  24  72 N16       30.22R WCI  21
PIERRE         CLOUDY    35  30  82 NW17      30.17R WCI  25
CUSTER         PTSUNNY   28  14  55 NW12G20   30.16R WCI  18
ELLSWORTH AFB  SUNNY     32  25  77 N20       30.20S WCI  20
PHILIP         CLOUDY    35  26  69 NW17G25   30.22R WCI  25
PINE RIDGE     CLOUDY    31  24  75 W9        30.25R WCI  23
SPEARFISH      FAIR      32  23  69 W16G25    30.23F WCI  21
WINNER         CLOUDY    37  28  70 NW18      30.18R
$$

SDZ004>011-016>023-039-040-051800-
NORTHEAST SOUTH DAKOTA

CITY           SKY/WX    TMP DP  RH WIND       PRES   REMARKS
ABERDEEN       LGT SNOW  27  22  81 SW5       30.17R VSB 1   WCI  22
WATERTOWN      CLOUDY    24  16  71 S14       30.13S WCI  12
BROOKINGS      CLOUDY    24  17  74 S14       30.16S WCI  12
SISSETON         N/A     28  21  75 W5        30.15R WCI  23
$$

SDZ017-020-022-023-036>040-048>070-051800-
SOUTHEAST SOUTH DAKOTA

CITY           SKY/WX    TMP DP  RH WIND       PRES   REMARKS
SIOUX FALLS    CLOUDY    24  17  74 S15       30.21S WCI  11
HURON          LGT SNOW  25  20  81 S3        30.17R
CHAMBERLAIN    CLOUDY    33  27  77 NW12      30.17R WCI  25
MITCHELL       CLOUDY    28  21  75 S7        30.18S WCI  21
YANKTON        CLOUDY    28  21  74 S14       30.21F WCI  17
$$

ABBREVIATIONS USED IN REMARKS
   TC - TEMPERATURE IN CELSIUS
  WCI - WIND CHILL INDEX
   HX - HEAT INDEX
  VSB - VISIBILITY




USA.gov is the U.S. government's official web portal to all federal, state and local government web resources and services.